Slide Mt

United States     39˚19′10″N   119˚52′04″W
temp.,
°C
wind,
m/s
gust,
m/s
humid.,
%
clouds,
%
prec.,
mm/h
press.,
hPa
HPBL,
m
27 november, fri
fri2701:00−3˚ssw11478 0.0 102996
04:00−3˚ssw11464 0.0 102987
07:00−3˚sse11450 0.0 102999
10:00ese11340 0.0 1028312
13:00+3˚e22310 0.0 1025417
16:00+2˚ene11450 0.0 102522
19:00−1˚s11480 0.0 102622
22:00−1˚ssw12473 0.0 102723
28 november, sat
sat2801:00−1˚ssw11480 0.0 102622
04:00sw11500 0.0 102622
07:00w01510 0.0 102622
10:00+6˚sse01300 0.0 1025168
13:00+9˚ene10270 0.0 1023364
16:00+5˚ne22420 0.0 102222
19:00+1˚ne11505 0.0 102422
22:00ne11505 0.0 102522
29 november, sun
sun2901:00ne114839 0.0 102522
04:00sse114849 0.0 102522
07:00−1˚sse115028 0.0 102622
10:00+4˚sse113864 0.0 1025225
13:00+6˚ese1134100 0.0 1022345
16:00+3˚ene115081 0.0 102222
19:00−1˚ssw11576 0.0 102322
22:00sw225622 0.0 102422
30 november, mon
mon3001:00+1˚sw125089 0.0 102422
04:00+2˚wsw234094 0.0 102422
07:00+1˚w233899 0.0 102522
10:00+8˚sw342665 0.0 1024252
13:00+11˚wsw36200 0.0 10211040
16:00+6˚wsw22370 0.0 102123
19:00+3˚wsw33440 0.0 102322
22:00+1˚wnw11430 0.0 102422
1 december, tue
tue101:00+1˚nne12400 0.0 102522
04:00n22390 0.0 102622
07:00−1˚ne11510 0.0 102722
10:00+3˚ene12510 0.0 1026393
13:00+5˚ene22510 0.0 1023574
16:00+3˚ene22610 0.0 102382
19:00e12750 0.0 102522
22:00−1˚se11750 0.0 102622